Temperature
22 23 22 23 23 23 23 24 25 26 27 26 26 27 28 28 27 27 27 27 27 27 25 23 23 23 22 22 21 20 20 19 18 18 18 18 18 18 18 17 17 17 17 16
23 23 23 22 22 22 22 23 24 25 26 26 26 27 28 28 28 27 28 28 27 26 24 22 22 22 22 22 21 20 20 19 18 18 18 18 18 18 18 17 17 17 17 16
22 23 23 22 22 22 23 23 23 23 24 25 25 26 27 28 28 27 25 25 26 25 24 23 22 21 21 21 21 21 20 19 18 18 18 18 18 18 18 18 17 17 17 17
22 23 22 22 22 22 22 23 22 22 23 24 25 24 27 28 28 27 26 25 24 23 23 22 21 21 20 20 20 20 19 18 18 18 18 18 18 17 17 17 17 17 17 17
23 23 23 23 23 23 22 21 20 21 21 23 25 25 26 27 27 27 27 25 24 22 22 22 21 21 20 20 20 19 19 18 18 17 17 17 17 17 17 17 16 16 16 16
23 24 23 23 24 23 22 21 20 20 21 22 25 25 25 27 26 26 26 24 23 22 22 22 21 21 20 20 20 19 19 18 18 18 17 16 16 16 16 16 16 16 16 16
23 24 23 23 23 23 23 22 20 20 20 22 24 24 25 27 26 25 25 24 23 22 22 22 21 20 20 20 19 19 18 18 17 17 16 16 16 16 16 15 15 15 15 15
22 23 24 23 23 23 23 23 22 21 22 23 23 24 26 26 25 24 24 24 23 23 22 22 21 20 20 19 19 18 18 17 17 17 16 16 16 16 15 15 15 15 15 15
22 23 24 23 23 23 23 23 24 23 23 22 24 25 26 26 25 25 24 24 23 23 23 22 21 20 20 19 19 19 18 17 17 16 16 16 16 16 15 15 15 15 15 15
21 21 23 23 23 23 23 24 23 23 22 22 23 24 25 26 25 25 25 25 24 24 23 23 21 21 20 20 19 19 18 17 17 17 16 16 16 15 15 15 15 15 15 14
21 21 22 23 22 22 22 22 23 23 23 21 22 23 25 25 25 25 25 24 23 23 23 23 22 21 20 20 20 19 19 18 17 17 16 16 16 16 15 15 15 15 15 14
20 19 20 22 22 20 21 21 22 20 21 21 21 23 25 24 24 24 24 24 23 22 22 22 21 21 21 21 20 20 19 18 18 17 17 16 16 16 16 15 15 15 15 14
19 18 18 20 20 20 20 20 20 20 20 20 20 22 25 24 24 24 23 23 23 23 22 22 21 21 21 21 20 20 19 19 18 18 17 16 16 16 16 15 15 15 15 14
18 17 17 17 18 18 19 20 20 19 18 19 21 22 23 23 23 23 22 22 22 22 22 22 21 21 21 21 20 20 20 19 18 18 17 17 16 16 16 15 15 15 15 14
18 18 18 18 18 18 19 19 20 20 20 19 20 20 21 21 21 20 20 21 21 21 22 22 21 21 20 20 20 20 20 19 18 18 17 17 16 16 16 15 15 15 15 14
18 17 17 18 18 18 19 20 20 20 19 19 19 19 20 19 18 19 20 20 21 21 21 21 21 20 20 19 19 19 19 19 18 18 17 16 16 16 16 16 15 15 15 14
17 17 16 17 18 18 18 18 18 18 18 18 17 17 17 17 18 19 19 20 20 21 20 20 20 20 19 19 18 18 18 18 18 17 17 16 16 16 16 16 16 16 15 15
15 16 16 16 17 16 17 18 17 18 17 17 17 17 17 17 19 19 17 18 19 19 19 18 18 18 18 18 18 19 19 18 17 17 16 16 16 16 16 16 16 16 15 15
15 14 15 16 16 17 17 15 14 16 17 16 16 16 16 16 21 20 16 15 16 16 17 17 17 17 18 18 18 18 18 17 17 16 16 16 16 16 16 16 16 16 15 15
15 14 13 13 13 14 11 11 13 17 16 15 15 16 15 16 19 19 15 14 15 15 16 16 17 17 18 17 17 17 16 15 15 15 15 15 15 15 15 15 15 15 15 15
14 14 12 10 11 11 8 8 13 13 11 13 14 14 15 15 16 15 14 14 14 15 15 15 16 17 16 16 15 15 14 13 13 13 13 13 14 14 14 14 14 14 15 15
13 12 11 10 9 8 8 8 9 9 10 12 13 14 14 14 14 15 14 14 14 14 14 14 15 16 15 14 14 13 12 12 12 12 12 12 12 12 13 13 13 13 13 13
13 12 11 11 10 9 8 8 8 9 10 11 12 13 14 14 15 15 15 14 14 14 14 14 14 14 13 13 13 13 12 12 12 11 11 11 11 11 11 11 11 12 12 12
13 13 12 12 11 10 9 8 8 9 9 11 12 13 14 14 14 15 15 15 15 15 14 14 13 13 13 13 13 13 12 12 12 11 11 11 11 10 10 10 10 10 11 11
12 11 11 11 11 10 10 9 8 9 9 10 12 13 13 14 14 15 15 15 15 15 14 14 13 13 13 13 13 13 13 12 12 11 11 11 10 10 10 10 10 10 10 11
10 9 8 9 9 9 9 9 9 9 9 10 11 12 13 14 14 14 15 15 15 15 14 14 14 13 13 13 13 13 13 12 12 12 11 11 10 10 10 10 11 11 11 11
Wind_Speed
1 3 4 3 4 7 8 9 10 9 6 8 13 14 13 11 9 11 13 15 16 14 9 7 7 5 5 5 6 7 9 11 10 9 9 9 9 8 7 8 11 12 12 12
3 5 4 3 4 7 10 12 12 9 6 9 13 15 14 14 13 13 14 15 16 13 10 9 7 5 3 2 2 4 6 8 10 9 8 6 7 7 8 8 9 12 13 10
7 5 2 5 7 10 12 12 10 10 12 9 10 15 14 14 12 11 11 11 12 13 12 11 8 5 4 3 4 4 5 7 9 9 6 5 5 5 6 7 8 10 13 12
5 5 7 10 12 12 12 5 6 8 10 9 7 13 13 12 13 13 12 10 11 11 12 11 8 6 5 5 5 5 6 7 8 9 8 9 7 7 7 6 7 10 13 13
4 4 7 9 9 9 6 0 2 5 9 13 13 13 11 9 12 11 8 9 10 12 13 11 8 6 6 6 5 5 6 6 6 7 6 7 6 5 4 5 6 8 10 12
8 7 8 9 7 6 5 3 2 4 8 12 12 10 9 6 5 6 5 4 9 12 12 10 8 7 7 6 6 6 6 6 6 5 5 6 5 5 5 5 5 5 6 8
6 5 4 5 6 7 9 6 3 3 5 7 3 6 6 4 5 7 7 3 9 13 12 11 10 9 8 7 7 6 7 7 7 6 6 5 5 5 6 6 6 5 5 5
7 4 1 2 5 5 9 11 8 4 5 3 4 6 3 3 5 5 3 4 10 12 11 10 10 9 9 9 9 8 7 7 6 6 5 5 4 4 4 5 4 5 5 5
6 5 1 4 6 6 6 8 7 10 10 8 7 6 6 3 2 2 2 6 10 11 11 10 9 9 10 10 11 10 9 7 7 6 5 5 4 4 4 4 4 4 4 4
6 10 7 4 5 5 7 5 5 7 7 10 8 9 6 4 2 2 2 4 6 7 8 9 9 10 10 11 11 11 10 9 8 6 6 4 5 4 3 4 4 4 5 5
7 8 8 6 4 5 4 6 8 8 7 7 6 3 1 2 4 4 3 2 1 2 4 6 8 10 11 11 11 12 11 10 9 8 7 6 6 5 4 4 4 5 5 7
5 6 10 9 2 2 4 5 7 8 10 8 6 4 4 3 5 5 5 4 3 4 4 4 5 8 11 12 13 13 13 12 11 10 9 7 6 5 5 5 5 6 6 7
6 6 8 6 4 2 0 1 4 6 6 8 8 6 1 4 7 8 8 9 8 8 7 6 5 7 9 12 12 13 13 12 12 11 10 9 8 7 6 5 6 6 7 8
6 7 8 8 9 7 8 8 8 8 6 8 10 11 11 14 16 17 17 16 15 13 11 9 7 7 8 10 12 13 13 12 12 11 11 10 9 8 7 7 7 7 8 9
6 9 10 10 11 11 13 13 13 13 12 12 14 15 16 17 19 20 20 19 17 15 13 11 9 6 6 8 10 11 11 11 11 11 11 10 9 8 7 7 8 9 9 9
8 10 13 14 12 12 15 14 12 9 7 7 10 12 14 22 21 20 19 16 15 13 12 10 8 5 4 7 9 9 9 9 10 10 9 8 8 8 8 8 9 9 10 10
9 11 13 13 12 13 8 5 6 7 10 9 10 14 21 23 21 16 12 10 10 9 8 6 3 1 3 5 7 7 7 7 7 7 7 7 8 9 9 9 9 10 10 11
9 11 8 8 8 5 4 9 9 6 12 17 15 18 20 22 16 8 11 10 8 6 4 4 5 6 7 7 7 6 5 4 3 4 5 6 7 8 8 9 10 10 9 10
5 5 5 5 6 6 4 11 14 6 6 20 22 23 25 26 6 13 19 14 9 7 7 8 9 10 11 10 9 8 7 6 4 3 2 2 4 6 7 9 10 9 9 9
3 3 4 4 5 1 10 25 24 7 1 22 24 24 25 24 14 14 19 13 10 10 10 10 11 12 12 11 10 10 10 9 8 7 6 4 2 3 5 7 8 7 8 8
12 7 7 6 4 3 14 28 16 5 9 21 22 22 21 17 13 16 13 7 8 8 8 9 10 11 10 10 10 11 10 9 8 7 7 7 5 3 1 3 4 6 7 8
9 8 7 6 6 5 16 17 10 10 17 21 22 21 21 19 18 13 6 3 5 6 6 7 8 9 9 9 9 10 9 7 6 7 7 8 7 6 4 2 1 3 6 7
7 7 5 4 4 6 8 10 13 14 20 22 22 22 20 19 17 12 4 0 2 4 5 5 7 8 7 7 7 7 6 6 6 6 7 6 6 6 5 4 3 3 4 5
6 7 6 6 4 9 10 10 15 18 20 22 21 20 19 18 17 11 4 3 3 3 4 3 4 4 4 4 5 5 4 4 5 6 6 6 6 6 6 5 3 3 4 5
5 7 7 7 9 11 9 15 19 21 22 21 19 18 17 17 16 12 5 5 4 4 4 3 3 1 1 3 4 4 3 3 4 4 5 5 6 6 6 6 6 4 5 4
3 4 5 6 10 12 17 17 19 21 21 21 19 18 17 16 15 12 5 5 5 5 5 4 3 3 2 2 4 3 2 2 3 4 5 4 5 5 5 5 6 11 10 10
Wind_Direction
315 253 255 299 300 283 291 281 272 273 283 282 270 267 264 263 243 247 244 236 228 224 212 203 210 217 229 234 240 232 224 215 206 199 201 199 205 209 210 205 202 195 202 212
261 262 284 289 277 263 260 265 268 274 291 296 281 274 268 263 256 251 252 242 227 215 204 199 194 183 186 188 196 202 201 200 198 198 202 205 202 212 216 213 204 195 189 192
272 285 299 263 255 256 256 258 271 289 307 283 285 275 262 259 251 245 246 248 234 212 207 192 183 168 152 148 157 168 178 185 191 186 184 183 182 194 203 208 202 196 187 180
270 282 266 261 259 256 260 268 289 298 299 286 281 287 278 273 262 249 244 235 221 203 198 183 175 165 149 134 139 150 164 176 182 185 197 206 210 216 222 213 202 200 195 194
279 271 264 265 267 243 247 90 311 296 286 280 266 273 280 273 268 264 256 236 214 195 187 177 169 157 139 127 125 132 147 160 174 193 206 225 234 233 225 215 209 204 199 204
270 265 262 264 266 232 192 168 271 267 268 263 262 267 282 279 295 311 317 240 199 184 178 171 163 161 149 136 132 136 142 143 159 178 196 211 211 212 208 211 213 209 204 210
288 241 223 245 242 213 219 230 250 237 228 251 240 256 273 318 328 315 309 239 180 176 175 175 177 179 171 162 157 156 153 153 162 175 186 196 201 217 222 216 213 211 210 212
294 284 152 219 250 250 231 236 242 259 250 236 213 248 271 337 312 311 304 179 170 177 184 187 189 188 185 179 176 176 172 167 169 185 188 196 194 212 225 221 216 210 215 214
296 289 292 292 283 265 235 228 257 268 270 269 255 253 280 282 323 19 96 161 180 191 198 202 200 198 194 190 188 186 182 180 181 189 189 198 192 198 204 211 210 204 208 202
301 289 291 307 262 228 272 271 228 243 257 256 252 249 251 264 14 48 113 169 196 214 220 217 212 210 206 200 194 189 189 186 185 191 195 196 197 187 191 196 199 199 199 194
295 283 281 276 278 292 267 247 252 257 262 265 267 232 41 13 18 13 20 44 0 276 262 247 230 220 213 205 196 191 188 189 187 191 194 196 194 190 190 193 193 194 192 188
304 288 280 280 312 309 279 294 276 264 260 263 272 267 63 5 360 5 8 18 11 351 335 303 265 237 219 211 204 197 192 187 188 190 192 200 194 193 202 197 193 192 191 194
313 288 289 266 177 148 331 20 325 308 281 257 252 260 55 339 327 330 330 327 324 319 317 307 279 251 228 215 206 197 193 188 183 186 191 197 200 203 211 207 197 196 194 196
301 283 277 282 311 320 306 301 299 293 281 276 271 288 302 311 313 311 307 303 300 299 301 300 291 265 233 215 206 196 191 188 184 187 193 203 207 207 212 210 204 205 201 200
320 300 310 306 304 300 296 293 287 278 274 280 296 304 309 319 315 304 295 290 287 285 286 291 293 280 231 208 200 193 189 190 190 194 202 209 212 211 213 209 210 210 208 208
317 297 303 299 300 304 293 289 287 283 289 295 309 311 330 321 310 299 290 283 279 279 283 293 296 280 223 198 188 183 187 191 196 206 215 215 218 214 215 214 213 211 208 211
294 290 294 292 303 301 286 15 25 70 60 28 356 334 327 323 319 317 312 296 287 290 298 310 323 43 160 163 163 168 179 185 202 213 221 218 218 218 219 215 213 210 209 209
279 286 275 279 289 263 70 50 19 96 71 28 2 346 339 330 321 14 4 341 329 341 2 50 80 92 103 110 116 121 134 160 199 231 238 231 225 222 218 215 213 212 210 205
261 289 283 272 268 258 80 14 345 301 68 19 359 350 348 341 355 43 20 11 17 39 66 77 83 89 88 88 94 98 92 82 66 28 338 284 242 229 220 216 216 212 209 206
349 287 302 303 279 295 16 341 324 272 45 3 353 349 348 351 5 1 359 11 43 60 71 80 83 83 81 81 85 85 78 68 54 37 25 17 351 245 230 225 219 208 207 209
354 359 3 349 313 48 4 341 350 58 348 334 340 343 343 345 332 322 336 17 50 60 65 77 82 80 79 82 82 78 70 59 46 37 37 37 33 18 300 242 218 202 200 201
358 2 8 357 347 348 345 345 359 334 319 325 331 333 335 333 331 335 344 33 57 66 67 76 86 85 81 80 81 77 67 55 46 44 44 43 37 33 35 46 145 181 185 185
9 4 340 330 301 284 303 310 311 317 317 319 321 323 328 330 333 332 313 165 81 76 80 85 95 94 88 75 65 65 60 43 38 42 43 42 45 45 45 61 100 128 154 162
351 353 331 320 304 315 316 327 324 323 316 313 313 316 324 329 331 327 277 208 168 127 112 119 125 111 88 65 47 37 36 25 25 33 32 29 32 44 52 57 78 111 135 151
337 346 333 316 331 330 321 329 325 321 320 318 315 317 323 329 332 328 278 218 191 166 158 169 176 142 65 23 12 12 11 3 11 27 33 37 46 50 55 57 41 41 59 47
21 344 326 307 316 313 309 316 319 321 323 322 316 315 321 329 334 332 296 223 198 185 175 178 195 228 273 334 359 24 42 7 6 28 36 42 56 67 74 86 81 51 55 59
Height
1503 1501 1501 1500 1500 1500 1500 1497 1494 1489 1485 1488 1485 1482 1479 1479 1481 1482 1481 1482 1483 1486 1489 1490 1492 1493 1496 1497 1498 1500 1501 1502 1503 1504 1507 1510 1513 1515 1517 1519 1521 1523 1526 1529
1501 1500 1498 1499 1500 1501 1500 1500 1495 1489 1485 1487 1483 1479 1475 1474 1475 1476 1476 1476 1479 1482 1486 1487 1489 1491 1493 1494 1495 1496 1497 1498 1499 1500 1502 1505 1509 1511 1513 1514 1516 1519 1521 1524
1502 1499 1499 1500 1500 1501 1498 1498 1496 1495 1489 1483 1485 1480 1472 1468 1469 1472 1473 1474 1475 1479 1482 1485 1488 1490 1491 1492 1493 1494 1494 1495 1496 1497 1499 1502 1504 1507 1508 1510 1512 1514 1516 1519
1500 1498 1499 1498 1497 1497 1499 1495 1497 1498 1496 1489 1486 1488 1471 1465 1464 1465 1468 1470 1472 1476 1479 1483 1486 1488 1490 1491 1491 1492 1492 1493 1494 1495 1497 1499 1502 1504 1506 1506 1507 1509 1511 1514
1497 1496 1496 1496 1493 1493 1496 1497 1500 1500 1499 1493 1482 1484 1471 1461 1463 1460 1462 1466 1470 1473 1477 1481 1484 1487 1488 1489 1490 1491 1491 1492 1493 1494 1495 1497 1499 1501 1502 1503 1504 1505 1507 1509
1494 1493 1493 1490 1489 1490 1492 1498 1500 1499 1498 1497 1479 1481 1475 1460 1461 1460 1462 1464 1467 1471 1475 1479 1483 1485 1487 1488 1489 1489 1490 1491 1492 1492 1493 1495 1497 1498 1499 1499 1500 1501 1502 1504
1491 1488 1490 1490 1490 1490 1491 1497 1506 1507 1505 1494 1476 1481 1472 1459 1460 1461 1461 1462 1465 1470 1474 1478 1481 1483 1485 1486 1487 1488 1489 1490 1491 1491 1493 1494 1495 1496 1497 1497 1497 1497 1498 1499
1496 1492 1486 1487 1487 1486 1485 1488 1499 1504 1499 1487 1481 1479 1464 1459 1461 1461 1461 1462 1465 1470 1474 1477 1480 1482 1484 1485 1486 1487 1488 1489 1489 1490 1492 1493 1493 1493 1494 1494 1494 1494 1495 1496
1495 1492 1484 1486 1485 1484 1483 1484 1479 1485 1483 1489 1478 1469 1461 1457 1459 1460 1461 1463 1466 1469 1473 1476 1479 1481 1482 1483 1484 1485 1486 1487 1488 1489 1490 1491 1491 1491 1492 1492 1492 1493 1493 1493
1498 1496 1485 1485 1483 1483 1480 1476 1482 1484 1490 1490 1479 1474 1468 1459 1459 1459 1461 1463 1466 1469 1472 1474 1477 1479 1480 1481 1482 1483 1485 1486 1486 1487 1488 1489 1490 1490 1490 1491 1491 1491 1492 1492
1501 1499 1489 1483 1482 1482 1481 1482 1478 1476 1478 1488 1488 1477 1459 1460 1461 1462 1462 1464 1467 1469 1471 1472 1474 1476 1477 1478 1479 1480 1481 1483 1484 1485 1486 1487 1488 1488 1489 1490 1490 1490 1491 1491
1502 1502 1495 1485 1483 1486 1484 1482 1481 1490 1487 1483 1487 1478 1459 1462 1463 1464 1464 1465 1467 1468 1469 1470 1470 1471 1472 1474 1476 1477 1479 1480 1481 1482 1484 1485 1486 1487 1488 1489 1489 1490 1490 1491
1505 1506 1504 1492 1491 1488 1485 1485 1484 1484 1486 1485 1489 1479 1460 1462 1464 1465 1466 1466 1466 1466 1467 1467 1467 1466 1467 1469 1471 1473 1475 1477 1478 1480 1481 1483 1484 1485 1486 1488 1488 1489 1490 1491
1507 1504 1508 1508 1500 1494 1490 1486 1484 1486 1491 1486 1480 1473 1465 1465 1465 1466 1466 1465 1464 1463 1463 1464 1463 1463 1462 1464 1466 1469 1472 1474 1476 1477 1479 1481 1483 1483 1484 1485 1486 1487 1489 1490
1504 1502 1499 1497 1495 1492 1489 1486 1483 1482 1482 1486 1479 1476 1471 1470 1470 1467 1464 1462 1460 1459 1460 1460 1459 1459 1458 1460 1462 1466 1469 1471 1473 1475 1477 1478 1480 1481 1482 1483 1483 1485 1487 1489
1505 1503 1499 1495 1490 1489 1487 1481 1478 1477 1478 1480 1481 1478 1475 1475 1470 1464 1459 1457 1456 1456 1456 1456 1455 1455 1455 1457 1460 1464 1467 1469 1471 1473 1474 1476 1477 1478 1479 1480 1481 1482 1483 1485
1505 1503 1501 1496 1489 1488 1484 1482 1481 1482 1484 1487 1489 1487 1481 1472 1465 1459 1455 1453 1453 1453 1453 1453 1452 1452 1454 1457 1460 1462 1465 1467 1469 1470 1472 1472 1473 1474 1475 1476 1478 1479 1480 1482
1508 1502 1499 1495 1493 1497 1489 1484 1486 1485 1487 1490 1489 1486 1481 1473 1461 1458 1456 1453 1452 1451 1451 1451 1452 1452 1454 1457 1459 1462 1464 1465 1466 1467 1468 1469 1469 1470 1471 1472 1474 1476 1477 1479
1509 1507 1502 1496 1494 1487 1488 1494 1497 1491 1489 1492 1489 1484 1477 1469 1455 1456 1457 1455 1453 1452 1452 1452 1454 1455 1456 1458 1460 1462 1463 1463 1464 1464 1464 1464 1464 1465 1466 1468 1469 1471 1473 1475
1509 1508 1508 1505 1506 1502 1510 1506 1494 1489 1491 1495 1492 1487 1481 1473 1462 1463 1463 1460 1457 1456 1456 1456 1457 1458 1459 1460 1461 1462 1462 1462 1462 1461 1461 1460 1460 1460 1461 1462 1464 1465 1468 1470
1511 1511 1516 1518 1515 1510 1521 1514 1497 1502 1511 1503 1497 1493 1487 1482 1480 1474 1468 1465 1463 1462 1461 1461 1461 1461 1461 1462 1463 1463 1463 1462 1461 1460 1459 1458 1457 1457 1456 1457 1458 1460 1462 1464
1522 1521 1523 1525 1525 1527 1525 1520 1519 1519 1513 1506 1500 1495 1489 1484 1478 1473 1471 1469 1467 1466 1465 1465 1465 1464 1464 1465 1465 1465 1464 1463 1461 1460 1459 1457 1456 1455 1454 1454 1454 1455 1457 1459
1526 1528 1527 1528 1530 1529 1526 1524 1522 1518 1512 1505 1499 1493 1489 1483 1478 1474 1472 1471 1469 1468 1468 1468 1468 1467 1467 1467 1467 1467 1465 1464 1463 1461 1460 1458 1457 1455 1454 1453 1453 1453 1455 1457
1528 1528 1527 1525 1524 1524 1523 1521 1517 1514 1509 1503 1497 1492 1487 1482 1477 1473 1472 1471 1470 1469 1469 1470 1470 1471 1470 1469 1468 1468 1466 1465 1464 1463 1461 1460 1459 1457 1455 1454 1454 1455 1456 1458
1533 1531 1529 1526 1524 1522 1519 1517 1513 1508 1503 1498 1493 1490 1486 1481 1476 1473 1471 1471 1470 1470 1469 1470 1471 1472 1472 1471 1470 1468 1466 1466 1465 1464 1463 1462 1460 1458 1457 1456 1456 1457 1458 1459
1535 1536 1534 1529 1526 1524 1518 1514 1510 1505 1499 1494 1490 1486 1483 1480 1475 1472 1470 1470 1470 1470 1470 1470 1471 1472 1473 1472 1470 1468 1467 1466 1466 1465 1464 1463 1462 1461 1460 1459 1459 1460 1460 1461